RH
41 33 32 42 44 41 72 58 72 32 40 25 21 23 32 40 44 48 48 50 50 51 48 47 48 47 48 52 55 65 79 90 94 93 90 89 93 95 95 97 98 98 98 99
82 39 41 41 36 38 43 44 48 40 38 22 22 28 35 39 48 50 50 51 51 51 51 51 51 52 51 51 51 51 56 66 75 85 84 88 92 92 91 94 95 94 95 97
56 38 54 75 42 36 32 33 36 45 24 26 29 36 39 39 45 48 50 52 53 52 54 54 53 53 53 52 51 52 54 55 58 60 64 67 66 74 77 76 76 81 84 84
69 65 61 29 33 25 25 24 26 28 24 24 28 27 34 37 40 43 48 52 52 52 54 53 51 51 51 54 54 60 60 60 60 58 63 63 67 70 71 71 72 74 77 79
62 36 22 16 18 39 38 26 20 25 21 21 24 36 43 36 38 40 41 45 46 49 52 53 52 51 51 53 56 60 66 67 63 62 63 66 71 74 76 93 88 77 72 71
59 53 31 12 20 32 33 26 20 22 21 22 33 45 24 29 34 42 43 47 50 50 51 52 51 50 49 53 56 65 68 68 66 67 67 72 76 77 74 74 74 73 66 62
54 48 24 15 34 35 24 18 23 22 23 26 38 28 40 41 44 42 47 51 50 52 53 52 53 54 52 56 66 70 66 66 66 66 72 70 71 70 69 62 59 60 58 57
40 49 50 33 45 26 17 15 15 22 26 30 31 28 36 46 45 52 54 54 54 54 54 56 59 60 57 60 67 67 65 63 63 62 65 69 72 72 65 60 61 63 63 66
28 29 22 34 22 27 22 16 20 23 32 33 39 35 34 43 44 50 51 52 51 56 56 59 62 62 61 58 60 63 61 61 60 58 59 61 70 72 61 59 61 62 62 68
24 18 18 26 30 26 26 29 25 26 27 31 37 37 36 35 41 44 48 49 48 50 52 54 55 60 58 54 56 58 57 59 59 60 60 58 57 62 62 59 59 57 61 66
25 20 20 20 19 19 20 22 29 30 30 33 35 37 37 39 39 41 45 48 47 49 50 50 46 52 55 57 55 57 57 61 62 61 62 62 60 64 64 64 77 76 71 76
27 18 17 17 15 17 21 24 26 29 32 35 38 39 40 40 40 44 46 49 51 50 50 47 45 49 53 58 58 58 60 62 63 63 62 62 63 63 82 80 78 81 77 77
23 18 17 18 18 19 21 23 23 25 27 30 31 38 39 41 42 50 49 51 53 53 52 49 48 49 53 59 62 64 65 68 69 75 70 70 66 69 80 74 77 79 72 72
21 21 25 23 24 20 23 24 29 24 26 28 30 30 39 43 45 48 55 53 52 53 53 48 48 51 53 60 64 69 73 85 78 83 85 82 77 78 79 75 73 69 71 66
26 23 23 22 22 22 22 26 30 32 30 30 34 37 39 47 51 54 54 54 55 55 52 52 54 57 58 63 68 70 72 72 72 73 79 80 80 81 72 72 74 71 68 66
31 30 30 31 30 29 29 31 34 34 32 30 30 36 42 45 48 52 54 55 57 60 57 62 66 65 69 73 75 77 75 79 80 87 86 84 78 72 68 67 67 70 72 77
41 44 41 43 38 32 31 31 31 35 35 32 30 34 40 47 49 51 57 56 55 58 64 72 73 74 83 81 84 83 84 86 87 80 80 81 75 70 70 71 72 72 72 69
36 35 34 33 34 34 34 33 32 32 36 37 37 36 41 48 51 52 57 59 59 64 73 75 77 85 81 82 85 86 87 82 72 69 74 78 77 76 78 79 78 79 78 76
34 36 35 34 34 36 36 35 34 35 35 36 39 45 52 54 56 56 61 72 77 83 85 83 90 85 83 85 86 82 74 68 72 75 78 77 81 80 80 79 79 78 76 74
43 44 45 40 44 48 44 42 41 46 49 49 53 61 71 70 69 72 72 81 77 73 84 85 82 82 82 83 81 74 73 74 74 77 79 78 76 76 76 75 78 76 73 70
46 52 56 59 56 60 56 48 50 54 52 53 57 62 64 64 66 69 78 76 72 82 81 86 81 77 76 81 81 78 79 80 80 81 82 82 80 78 77 74 72 74 74 72
42 49 54 60 64 60 56 55 54 57 54 57 62 64 69 73 74 76 72 70 79 82 78 75 74 77 76 77 83 83 83 82 83 85 86 84 83 82 82 81 83 79 79 81
59 55 54 52 53 52 57 60 63 62 66 70 75 75 74 73 76 82 85 80 79 77 72 71 75 78 80 82 82 83 83 84 83 79 80 84 84 87 85 83 81 80 82 81
71 62 58 61 62 60 62 64 66 68 73 78 80 80 81 81 78 74 76 80 82 77 73 77 82 82 80 81 82 81 76 77 80 82 75 73 85 85 84 82 83 80 80 78
75 76 81 80 76 71 78 80 86 89 83 81 84 83 81 76 78 76 76 80 82 77 80 82 82 82 71 67 68 71 74 79 86 78 71 80 84 87 84 83 83 83 84 84
77 69 68 74 72 71 73 80 77 79 80 84 84 81 79 76 74 75 80 84 80 80 82 80 81 65 62 63 63 61 61 64 66 68 76 81 84 87 86 85 84 84 84 88
82 73 77 76 77 77 78 77 80 83 83 80 83 80 80 82 79 81 84 78 75 76 78 76 70 66 66 63 60 60 64 66 71 77 80 86 89 90 87 87 88 89 89 88
Wind_Speed
13 15 13 11 11 10 11 11 6 2 9 13 12 8 6 3 4 4 5 6 7 8 9 10 11 12 13 12 11 10 11 13 13 11 11 11 12 12 11 10 9 9 9 8
6 3 7 15 16 16 17 18 19 21 23 17 5 4 6 7 4 5 4 5 5 6 7 8 10 10 10 11 11 11 11 10 8 9 9 9 10 9 9 9 9 9 9 8
5 3 6 9 14 20 11 10 14 9 6 3 5 6 8 8 7 7 5 4 4 5 5 6 7 8 9 9 9 9 10 11 10 10 9 9 9 9 9 10 8 8 7 7
6 5 4 2 1 1 14 13 15 17 15 10 9 8 7 7 9 9 7 5 4 3 3 4 5 6 6 7 7 8 9 9 8 8 8 8 9 10 11 8 8 8 7 7
4 5 13 7 7 7 7 6 12 19 15 11 7 6 14 15 13 11 8 6 4 2 3 3 4 4 4 5 6 7 8 9 9 9 9 9 9 9 7 7 7 7 6 7
1 4 6 3 8 5 3 6 9 9 9 8 6 6 4 2 13 11 9 7 6 4 3 4 2 4 4 4 5 6 7 7 7 7 8 8 7 6 5 4 4 3 4 5
9 6 11 6 11 7 3 2 7 9 8 7 9 8 4 4 5 8 10 10 8 6 6 4 2 3 3 3 4 4 4 5 6 7 7 6 6 5 4 5 5 5 5 6
5 6 10 14 9 7 3 3 7 8 8 10 12 10 6 5 6 8 9 8 9 8 7 6 4 3 3 1 2 3 3 4 5 6 4 4 5 4 5 6 6 6 7 6
9 7 2 19 8 14 3 4 4 8 7 9 9 12 11 10 11 10 10 10 9 9 8 7 6 6 5 2 1 1 1 2 3 3 4 5 5 5 4 5 5 5 5 4
6 11 16 14 18 16 11 11 9 8 9 9 11 9 10 10 10 10 11 11 10 10 10 9 9 8 7 5 4 3 3 2 1 3 3 4 3 4 4 5 5 4 4 4
16 22 19 21 19 15 14 13 15 13 12 13 12 12 11 10 10 10 10 10 10 11 10 10 9 9 8 7 7 6 4 3 2 1 3 3 4 4 4 5 4 4 4 4
13 20 15 14 12 5 10 10 10 11 11 13 13 14 12 11 9 9 10 10 10 11 10 10 10 9 9 8 8 7 5 4 2 1 0 2 3 3 4 2 5 5 3 3
28 23 19 17 17 16 13 13 11 11 12 12 11 13 13 11 11 9 9 10 11 12 11 11 10 9 9 9 8 7 6 4 3 1 2 3 3 4 4 2 6 5 3 4
23 22 23 22 14 11 11 13 11 10 10 10 11 10 12 12 10 12 13 13 11 10 10 10 11 11 11 11 9 8 6 5 3 3 2 1 3 3 3 3 3 3 7 6
27 19 21 19 18 16 13 9 11 12 12 12 10 10 10 12 12 13 11 12 12 11 10 10 10 10 10 11 10 9 6 5 5 2 2 3 3 3 3 3 3 4 3 4
13 14 17 20 20 19 17 14 14 14 13 13 11 11 13 11 10 10 11 12 13 13 12 11 10 9 9 8 8 6 6 6 5 3 2 3 4 3 3 3 4 4 4 3
20 20 16 13 14 16 19 14 14 13 12 13 12 10 10 11 11 10 11 12 12 11 12 12 11 10 9 9 8 5 5 5 7 3 4 5 3 3 3 3 4 4 4 5
22 22 18 16 13 11 14 12 11 12 12 11 8 7 9 10 12 11 12 11 10 10 10 10 9 10 9 9 6 5 4 5 5 5 4 3 3 2 3 3 4 5 5 4
15 18 16 15 12 11 12 10 10 10 8 7 7 9 9 9 8 8 9 12 12 11 10 9 14 12 8 8 8 5 5 4 4 3 3 3 3 3 3 4 5 5 5 5
11 8 5 8 6 7 10 9 7 5 5 5 5 5 6 7 7 7 11 13 11 7 12 12 12 9 8 9 12 5 5 5 4 4 4 3 3 3 3 6 6 6 6 6
9 5 6 7 7 6 6 6 5 5 5 6 6 7 7 6 8 9 11 9 10 11 13 17 9 6 6 8 9 5 4 4 4 4 3 2 2 3 4 4 5 5 6 5
7 6 5 5 5 4 5 4 3 3 2 4 4 3 4 5 6 7 7 7 8 17 10 8 8 13 9 13 5 5 5 4 3 2 2 2 2 3 4 5 5 6 6 6
4 4 5 6 7 4 4 3 3 3 3 3 4 4 4 2 5 7 7 6 8 11 8 7 13 17 17 6 5 5 5 4 3 2 1 0 2 2 3 4 5 6 6 7
2 4 4 3 1 3 4 4 3 3 3 3 3 3 4 4 3 2 3 11 17 15 9 10 15 18 14 5 5 5 4 4 4 3 1 0 1 2 3 4 5 6 6 8
4 3 3 4 5 4 2 4 3 2 3 2 3 3 4 3 3 4 5 7 18 11 8 16 19 18 6 5 5 5 4 3 3 2 2 1 1 2 3 4 5 6 6 7
5 4 3 4 3 3 3 4 2 3 4 4 3 3 3 4 5 7 8 12 8 13 9 9 7 6 6 5 5 5 5 4 3 2 1 1 1 3 4 5 6 6 7 6
3 3 2 2 3 4 3 3 3 4 4 4 5 5 5 6 7 9 12 8 8 8 8 7 6 6 6 6 5 5 4 3 3 2 1 0 2 3 4 5 6 6 6 6
Wind_Direction
270 276 270 252 256 225 213 238 245 343 280 288 298 286 256 268 278 293 313 340 6 9 11 14 19 19 19 21 19 23 34 26 29 26 33 43 47 48 52 53 50 54 57 52
275 296 269 257 257 243 245 244 255 266 276 274 298 303 231 240 233 249 269 306 339 354 4 16 13 11 17 24 27 29 37 47 37 35 37 44 42 49 57 57 53 59 62 66
276 331 311 264 237 223 219 221 217 232 253 176 255 238 240 242 228 235 234 245 298 329 349 2 13 5 14 15 25 43 41 38 40 45 44 42 54 56 52 61 67 63 64 67
285 298 263 89 102 212 225 251 231 252 263 250 254 264 266 243 246 234 224 227 234 271 312 352 355 12 9 25 33 39 49 47 46 50 49 50 51 50 49 44 52 56 55 56
278 280 286 225 200 185 191 278 227 237 255 257 241 269 263 237 227 230 224 223 240 257 288 315 342 1 3 30 44 47 45 44 38 42 50 46 49 49 47 49 29 45 44 52
283 271 271 78 143 132 141 266 186 206 237 244 175 246 265 170 197 207 207 206 212 230 258 276 329 334 348 25 46 49 37 39 48 49 53 58 52 49 51 56 69 79 76 77
221 254 277 113 147 150 216 64 171 195 222 199 206 241 87 131 178 200 199 202 201 205 226 243 274 300 319 1 36 24 34 37 38 49 45 43 58 52 47 56 60 52 54 56
201 215 262 140 137 214 77 146 179 199 213 216 230 250 206 205 205 197 201 203 201 210 213 208 206 240 258 310 33 3 7 33 34 38 42 35 46 40 35 34 40 36 28 33
221 228 75 187 224 219 324 284 203 221 211 228 235 238 237 226 216 214 213 206 209 218 215 209 211 216 227 196 201 321 316 57 48 50 39 43 37 22 24 33 30 31 26 8
291 242 251 215 239 260 261 254 256 241 247 218 232 241 247 237 230 218 210 213 208 213 222 219 216 212 227 188 191 204 194 153 89 62 9 30 22 35 356 17 9 5 5 355
261 265 271 270 253 254 255 244 243 250 244 246 238 235 230 229 225 223 222 210 206 211 220 225 216 215 213 198 192 203 200 195 204 59 35 12 21 17 2 42 28 347 347 349
250 255 262 273 286 261 244 238 235 240 240 230 235 241 235 234 226 217 211 204 205 209 211 216 218 212 214 202 202 209 206 200 197 184 305 344 343 333 129 75 14 348 347 327
250 263 268 273 284 280 267 244 240 245 240 247 228 226 229 227 226 226 214 206 205 206 207 208 211 213 206 198 199 207 214 196 165 220 285 299 304 307 311 219 202 207 220 284
242 258 263 260 258 262 247 257 244 251 247 239 240 226 221 221 211 214 210 205 195 199 200 205 207 206 195 190 190 191 188 165 193 191 194 252 281 278 258 278 291 287 220 250
251 240 250 258 263 264 261 249 240 236 237 239 220 226 221 222 210 213 207 199 187 187 192 198 200 202 188 182 182 186 180 188 200 179 196 238 268 234 245 248 257 271 281 273
254 242 250 249 249 248 254 250 247 243 241 245 238 220 223 221 228 217 202 190 183 189 187 187 191 187 168 171 170 169 175 163 176 164 180 238 230 238 250 260 273 277 280 285
261 259 255 250 249 256 252 248 248 239 237 241 235 229 216 216 217 216 201 193 192 189 182 181 187 153 159 163 161 162 159 162 195 185 215 231 222 232 249 266 273 278 289 303
250 255 253 249 254 250 251 246 248 237 233 237 243 229 228 220 222 211 195 187 189 181 182 178 157 151 161 158 156 157 169 187 173 192 195 203 220 230 248 259 274 280 283 289
248 247 246 240 245 251 258 248 240 241 248 234 226 222 226 228 222 213 184 176 184 176 173 154 146 148 155 155 152 166 182 178 172 173 187 220 234 236 246 260 270 279 285 286
243 239 228 232 228 227 250 242 231 230 230 231 226 217 210 215 201 189 174 186 188 180 150 149 154 151 155 164 169 167 176 178 181 182 193 212 229 244 259 273 276 276 282 284
232 223 213 205 216 205 209 252 241 226 224 217 225 229 222 219 204 181 176 187 178 145 153 149 150 146 156 157 169 161 172 172 182 189 192 220 262 270 271 275 280 287 282 282
221 204 204 207 194 208 209 201 217 254 230 209 215 228 205 198 187 192 204 199 139 145 146 145 146 152 154 158 155 157 167 170 166 159 179 215 259 286 299 300 299 296 295 294
200 172 169 197 200 187 166 180 188 217 218 193 183 189 203 200 188 178 177 143 147 151 138 137 144 152 155 146 150 151 148 155 155 130 118 306 295 305 305 307 302 303 303 300
223 174 169 155 147 186 203 173 178 201 209 161 168 169 160 158 185 209 123 148 146 141 136 139 151 152 145 136 135 137 138 143 138 134 143 269 317 301 303 297 295 298 298 300
220 187 141 179 207 227 186 132 137 174 165 128 113 133 151 132 140 141 137 132 139 124 123 148 148 147 132 130 131 133 130 132 129 150 121 154 322 317 290 291 289 290 288 289
225 203 185 202 242 218 191 149 185 166 167 138 129 138 116 92 119 130 128 131 128 127 129 138 124 126 122 126 128 129 128 134 142 136 130 87 317 285 285 288 286 284 284 287
229 215 158 203 236 220 190 181 182 188 179 158 146 146 136 124 136 126 125 124 114 110 108 107 116 125 116 121 122 121 126 127 144 143 118 237 268 275 286 288 286 285 285 289